Tracking 33195 objects as of 8-Feb-2026
HD Live streaming from Space Station
objects crossing your sky now

STARLINK-11507

Track STARLINK-11507 now!
10-day predictions
STARLINK-11507 is classified as:


NORAD ID: 62519
Int'l Code: 2025-004J
Perigee: 361.8 km
Apogee: 365.5 km
Inclination: 43.0 °
Period: 91.7 minutes
Semi major axis: 6734 km
RCS: Unknown
Launch date: January 8, 2025
Source: United States (US)
Launch site: AIR FORCE EASTERN TEST RANGE (AFETR)
Your satellite tracking list
Your tracking list is empty




NASA's NSSDC Master Catalog

Two Line Element Set (TLE):
1 62519U 25004J   26039.03757089  .00268016  00000-0  20254-2 0  9991
2 62519  43.0012 249.5811 0002712 233.4347 126.6271 15.70841012 62544
Source of the keplerian elements: AFSPC